Tracking 21076 objects as of 9-Aug-2020
HD Live streaming from Space Station
objects crossing your sky now
Track the most recent launched group of Starlink satellites

CHINASAT-18

Track CHINASAT-18 now!


NORAD ID: 44493
Int'l Code: 2019-053A
Perigee: 205.7 km
Apogee: 35,291.3 km
Inclination: 28.9 °
Period: 621.3 minutes
Semi major axis: 24119 km
RCS: Unknown
Launch date: August 19, 2019
Source: People's Republic of China (PRC)
Launch site: Xichang Space Center, China (XSC)
aabbcc
Your satellite tracking list
Your tracking list is empty




NASA's NSSDC Master Catalog

Two Line Element Set (TLE):
1 44493U 19053A   20221.78381749 -.00000086  11118-5  80728-4 0  9997
2 44493  28.8826  12.6668 7273290  34.8564 355.9853  2.31766517  8160
Source of the keplerian elements: AFSPC